This demonstration page uses our WeatherBlox Daily Observations layout. Learn more.

Left ArrowRight Arrow

44.8408, -93.29828

Hourly Observations for April 15, 2022

Temp ( °F °C ) Dew Point ( °F °C ) Humidity (%) Winds ( mph kmh ) Pressure ( in mb ) Visibility ( mi km ) Precip ( " mm )
12:18 am 00:18 Windy with Snow Likely 28 -2.2 20 -6.7 72 72 W 21 33 29.79 1009 3 5 0.00 0.00
12:22 am 00:22 Cloudy with Light Snow 28 -2.2 21 -6.1 75 75 W 18 30 29.80 1009 2 3 0.00 0.00
12:34 am 00:34 Cloudy with Light Snow 27 -2.8 22 -5.6 81 81 W 16 26 29.81 1009 7 11 0.00 0.00
12:37 am 00:37 Cloudy with Light Snow 27 -2.8 22 -5.6 81 81 W 15 24 29.81 1009 7 11 0.00 0.00
12:45 am 00:45 Cloudy 28 -2.2 22 -5.6 78 78 W 16 26 29.79 1009 9 14 0.00 0.00
12:53 am 00:53 Cloudy 28 -2.2 21 -6.1 75 75 W 12 19 29.78 1008 10 16 0.00 0.00
1:45 am 01:45 Cloudy with Light Snow 28 -2.2 20 -6.7 72 72 W 13 20 29.79 1009 7 11 0.00 0.00
1:53 am 01:53 Cloudy with Light Snow 28 -2.2 20 -6.7 72 72 W 15 24 29.76 1008 8 13 0.00 0.00
1:57 am 01:57 Cloudy 28 -2.2 19 -7.2 69 69 W 15 24 29.79 1009 9 14 0.00 0.00
2:12 am 02:12 Windy with Snow Likely 28 -2.2 19 -7.2 69 69 W 21 33 29.79 1009 8 13 0.00 0.00
2:49 am 02:49 Windy with Snow Likely 28 -2 18 -8 64 64 W 21 33 29.78 1009 9 14 0.00 0.00
2:53 am 02:53 Windy with Snow Likely 28 -2.2 18 -7.8 66 66 W 25 41 29.75 1008 9 14 0.00 0.00
3:05 am 03:05 Cloudy 28 -2.2 18 -7.8 66 66 W 25 41 29.78 1009 9 14 0.00 0.00
3:40 am 03:40 Mostly Cloudy with Light Snow 27 -2.8 17 -8.3 66 66 W 21 33 29.81 1009 9 14 0.00 0.00
3:53 am 03:53 Cloudy with Light Snow 26 -3.3 18 -7.8 71 71 WNW 17 28 29.78 1009 7 11 0.00 0.00
4:07 am 04:07 Mostly Cloudy 26 -3.3 14 -10 60 60 W 25 41 29.82 1010 9 14 0.00 0.00
4:53 am 04:53 Windy with Snow Likely 25 -3.9 16 -8.9 69 69 WNW 20 31 29.81 1010 7 11 0.00 0.00
5:05 am 05:05 Cloudy 25 -3.9 16 -8.9 69 69 W 17 28 29.85 1011 7 11 0.00 0.00
5:09 am 05:09 Cloudy 25 -3.9 14 -10 63 63 W 20 31 29.85 1011 9 14 0.00 0.00
5:53 am 05:53 Mostly Cloudy 24 -4.4 12 -11.1 60 60 W 20 31 29.83 1010 10 16 0.00 0.00
6:47 am 06:47 Cloudy with Light Snow 25 -4 12 -11 59 59 W 16 26 29.88 1012 7 11 0.00 0.00
6:53 am 06:53 Cloudy with Light Snow 24 -4.4 13 -10.6 62 62 NW 17 28 29.85 1011 3 5 0.00 0.00
7:06 am 07:06 Cloudy with Light Snow 22 -5.6 15 -9.4 75 75 WNW 17 28 29.90 1012 2 3 0.00 0.00
7:15 am 07:15 Mostly Cloudy with Light Snow 22 -5.6 16 -8.9 78 78 WNW 17 28 29.91 1013 8 13 0.00 0.00
7:24 am 07:24 Mostly Cloudy with Light Snow 22 -5.6 15 -9.4 75 75 WNW 21 33 29.91 1013 9 14 0.00 0.00
7:39 am 07:39 Mostly Cloudy 22 -5.6 9 -12.8 57 57 W 26 43 29.93 1013 9 14 0.00 0.00
7:53 am 07:53 Mostly Cloudy 22 -5.6 8 -13.3 55 55 WNW 23 37 29.90 1013 10 16 0.00 0.00
8:53 am 08:53 Mostly Cloudy 23 -5 8 -13.3 53 53 WNW 18 30 29.93 1013 10 16 0.00 0.00
9:53 am 09:53 Mostly Sunny 25 -3.9 9 -12.8 50 50 WNW 20 31 29.94 1014 10 16 0.00 0.00
10:53 am 10:53 Mostly Sunny 27 -2.8 8 -13.3 45 45 W 24 39 29.95 1014 10 16 0.00 0.00
11:53 am 11:53 Mostly Sunny 29 -1.7 8 -13.3 41 41 W 20 31 29.96 1015 10 16 0.00 0.00
12:53 pm 12:53 Mostly Sunny 30 -1.1 9 -12.8 41 41 W 15 24 29.94 1014 10 16 0.00 0.00
1:53 pm 13:53 Mostly Sunny 33 0.6 11 -11.7 40 40 NW 17 28 29.94 1014 10 16 0.00 0.00
2:53 pm 14:53 Mostly Sunny 34 1.1 12 -11.1 40 40 NW 14 22 29.95 1014 10 16 0.00 0.00
3:53 pm 15:53 Partly Cloudy 34 1.1 14 -10 44 44 W 18 30 29.96 1015 10 16 0.00 0.00
4:53 pm 16:53 Mostly Cloudy 33 0.6 15 -9.4 47 47 WNW 15 24 29.99 1016 10 16 0.00 0.00
5:53 pm 17:53 Mostly Cloudy 32 0 15 -9.4 50 50 WNW 15 24 30.00 1016 10 16 0.00 0.00
6:53 pm 18:53 Mostly Cloudy 31 -0.6 15 -9.4 52 52 NW 14 22 30.02 1017 10 16 0.00 0.00
7:53 pm 19:53 Mostly Cloudy 30 -1.1 16 -8.9 56 56 WNW 17 28 30.05 1018 10 16 0.00 0.00
8:53 pm 20:53 Cloudy 29 -1.7 17 -8.3 61 61 WNW 14 22 30.07 1018 10 16 0.00 0.00
9:53 pm 21:53 Cloudy 29 -1.7 17 -8.3 61 61 WNW 14 22 30.09 1019 10 16 0.00 0.00
10:13 pm 22:13 Cloudy 29 -1.7 17 -8.3 61 61 WNW 18 30 30.11 1020 10 16 0.00 0.00
10:53 pm 22:53 Cloudy 28 -2.2 16 -8.9 60 60 WNW 20 31 30.10 1019 10 16 0.00 0.00
11:53 pm 23:53 Cloudy 28 -2.2 17 -8.3 63 63 NW 17 28 30.11 1020 10 16 0.00 0.00

Powered by AerisWeather